Location: Juzet
(42.9779°N, 0.7597°E)
Time: 19:13:23
(UTC+00:00)

Cosmos 1066 Rocket - Pass Details

Date: 14 July 2020
Orbit: 799 x 894 km, 81.2° (Epoch: 12 August)

Event Time Altitude Azimuth Distance (km) Brightness Sun altitude
Rises 02:47:52 0° 347° (NNW) 3,513 8.0 -15.1°
Reaches altitude 10° 02:50:20 10° 346° (NNW) 2,572 7.2 -14.8°
Maximum altitude 02:56:10 71° 264° (W) 944 4.3 -14.1°
Drops below altitude 10° 03:01:57 10° 181° (S) 2,542 6.3 -13.4°
Enters shadow 03:02:14 - 180° (S) 2,649 6.3 -13.4°
